Back to catalog

SL-12 DEB

LostHEO
NORAD 27978·DEBRIS·🇷🇺 Russia

Launched Sep 16, 1988 from Baikonur Cosmodrome

Loading…

Next Passes (next 24 hours)

TLE

StaleSource: Space-Track

Epoch: Mar 1, 2016, 10:55 UTC

1 27978U 88085Y   16061.45531078  .00000032  00000-0  00000+0 0  9993
2 27978  59.5261 236.2488 4277145   0.1834  12.4317  4.20750558199229

Track SL-12 DEB in real time with AllMySat

Download on the App Store